Regional Weather Roundup
Issued by NWS

Home | Current Version | Previous Version | Graphics & Text | Print | Product List | Glossary On
Versions: 1 2 3 4 5 6 7 8 9 10 11 12 13 14 15 16 17 18 19 20 21 22 23 24 25 26 27 28
000
ASUS45 KTFX 241210
RWRMT
MONTANA REGIONAL WEATHER ROUNDUP
NATIONAL WEATHER SERVICE GREAT FALLS MT
600 AM MDT FRI MAR 24 2017

NOTE: "FAIR" INDICATES FEW OR NO CLOUDS BELOW 12000 FEET WITH NO
SIGNIFICANT WEATHER AND/OR OBSTRUCTIONS TO VISIBILITY.

MTZ001>007-043-241300-
WEST OF THE DIVIDE

CITY           SKY/WX    TMP DP  RH WIND       PRES   REMARKS
KALISPELL      PTCLDY    24  22  91 CALM      30.01F
MISSOULA       PTCLDY    28  25  88 CALM      30.06F
BUTTE          CLOUDY    22  18  85 E5        30.04S
MULLAN PASS    CLOUDY    24  22  91 S10G20    29.90F WCI  14
ANACONDA         N/A     27  18  69 S5        30.03S
DEER LODGE       N/A     21  16  79 CALM      30.06S
EUREKA           N/A     25  21  86 CALM      30.01F
HAMILTON         N/A     30  23  74 E3        30.04R
RONAN            N/A     27  23  84 CALM      30.03F
$$

MTZ008-052>055-241300-
SOUTHWEST MONTANA

CITY           SKY/WX    TMP DP  RH WIND       PRES   REMARKS
BOZEMAN        CLEAR     24  21  88 SE3       30.05S
DILLON         CLOUDY    29  20  69 S13       30.03S WCI  19
W YELLOWSTONE  CLOUDY    21  18  86 CALM      30.14R
ENNIS          CLEAR     30  23  74 S14       30.09S WCI  20
THREE FORKS      N/A     22  14  71 CALM      30.03S
TWIN BRIDGES     N/A     26  17  68 E5        30.02F
$$

MTZ009-010-012-014-046-048-049-054-241300-
EAST SLOPES AND CENTRAL MONTANA

CITY           SKY/WX    TMP DP  RH WIND       PRES   REMARKS
CUT BANK       CLEAR     26  19  74 CALM      29.97S
GREAT FALLS    CLOUDY    29  19  66 S9        29.99F WCI  20
MALMSTROM AFB  CLOUDY    28  20  73 S5        30.00F
HELENA         CLEAR     28  21  75 CALM      30.04S
AUGUSTA          N/A     21  16  81 CALM      29.97S
BOWMANS CRNR     N/A     29  20  70 S13       29.96F WCI  19
CHOTEAU          N/A     28  18  64 MISG      30.00S
FAIRFIELD        N/A     27  19  69 S6        29.98S WCI  21
POWER            N/A     23  16  74 CALM      29.98S
RAYNESFORD       N/A     26  19  73 E3        30.00F
$$

MTZ011-013-016-021-045-047-050-051-241300-
NORTH CENTRAL MONTANA

CITY           SKY/WX    TMP DP  RH WIND       PRES   REMARKS
HAVRE          CLEAR     29  23  78 W5        30.01S
LEWISTOWN      CLEAR     27  19  72 E6        30.04R WCI  20
N BAR RANCH      N/A     28  21  74 CALM      30.07R
CHINOOK          N/A     28  25  86 CALM      30.03R
DENTON           N/A     25  19  80 SE13      30.00R WCI  13
FORT BENTON      N/A     27  19  74 MISG      30.03F
GEYSER           N/A     26  18  70 SW7       30.00F WCI  19
GRASS RANGE      N/A     31  22  68 W8        30.01R WCI  24
STANFORD         N/A     30  19  63 CALM      30.01S
WINIFRED         N/A     31  21  65 S7        30.03R WCI  24
$$

MTZ017>020-022>027-061-062-241300-
NORTHEAST MONTANA

CITY           SKY/WX    TMP DP  RH WIND       PRES   REMARKS
GLASGOW        CLEAR     28  25  88 E10       30.04R WCI  19
JORDAN           N/A     26  23  88 W3        30.05R
SIDNEY         CLEAR     28  27  96 N6        30.07R WCI  22
WOLF POINT     CLEAR     30  27  88 E5        30.06R FOG
MALTA          CLEAR     28  27  93 CALM      30.03R
PLENTYWOOD       N/A     30  30 100 SE5       30.07R VSB 0
POPLAR           N/A     28  27  93 N5        30.06S
$$

MTZ028>42-056>058-241300-
SOUTHCENTRAL AND SOUTHEAST MONTANA

CITY           SKY/WX    TMP DP  RH WIND       PRES   REMARKS
BAKER          CLEAR     32  29  88 CALM      30.06R
BILLINGS       CLEAR     36  31  82 SW13      30.06R WCI  27
LIVINGSTON     CLEAR     24  18  77 CALM      30.05R
MILES CITY     CLEAR     33  30  88 SE6       30.06R WCI  28
BIG TIMBER     CLEAR     32  21  64 CALM      30.08R
EKALAKA          N/A     34  30  85 CALM      30.02R
FORSYTH          N/A     34  34 100 CALM      30.06R
HARLOWTON        N/A     28  20  73 NW14      30.05R WCI  16
LAUREL           N/A     33  18  54 CALM      30.04F
$$

REGIONAL REPORTS...DAKOTAS

CITY           SKY/WX    TMP DP  RH WIND       PRES   REMARKS
WILLISTON      CLEAR     24  22  91 CALM      30.08R
MINOT          CLEAR     26  23  88 NW6       30.10R WCI  19
DICKINSON      CLEAR     27  26  96 N3        30.03R
BEACH            N/A    N/A N/A N/A MISG        N/A
TIOGA            N/A     25  25 100 E5        30.09R
WATFORD CITY     N/A     28  28 100 CALM      30.07R
BISMARCK       CLEAR     28  26  92 CALM      30.08R
GRAND FORKS    CLOUDY    30  27  88 N10       30.06R WCI  21
FARGO          CLOUDY    35  33  92 N12       30.02R FOG     WCI  27
BUFFALO SD       N/A     37  33  85 NW8       29.97R WCI  31
RAPID CITY     CLOUDY    42  38  85 NW6       30.04R
$$

REGIONAL REPORTS...WYOMING/IDAHO/WASHINGTON

CITY           SKY/WX    TMP DP  RH WIND       PRES   REMARKS
GILLETTE       CLEAR     36  33  89 CALM      30.07R
SHERIDAN       PTCLDY    29  25  85 SW3       30.08R
BUFFALO WY     CLEAR     37  27  67 W8        30.09R WCI  31
CODY           CLEAR     35  28  75 SW9       30.10R WCI  28
YELLOWSTONE LA   N/A     15  13  91 CALM      30.16R
IDAHO FALLS    CLEAR     32  24  72 W3        30.13R
SALMON         CLOUDY    25  19  80 CALM      30.08R
BOISE          MOCLDY    44  26  49 SE16      30.01F
SPOKANE        CLOUDY    39  28  64 NE5       29.92R
$$

REGIONAL REPORTS...ALBERTA

CITY           SKY/WX    TMP DP  RH WIND       PRES   REMARKS
EDMONTON       CLEAR     21  19  93 SE6       29.93F WCI  14
CALGARY        MOCLDY    28  25  86 S3        29.89F
MEDICINE HAT   MOCLDY    30  28  93 S12       29.98S FOG     WCI  21
WATERTON GATE    N/A     36  19  51 SW14G21     N/A  WCI  27
MILK RIVER       N/A     23  19  86 W3          N/A
$$

REGIONAL REPORTS...SASKATCHEWAN

CITY           SKY/WX    TMP DP  RH WIND       PRES   REMARKS
SWIFT CURRENT  CLEAR     25  25 100 E10       29.98R WCI  15
REGINA         CLEAR     23  21  93 SE7       30.11R WCI  15
SASKATOON      PTCLDY    23  19  86 E5        30.12R
CYPRESS HILLS    N/A     32  18  55 SW5         N/A
ROCKGLEN         N/A     28  28 100 SE8         N/A  WCI  20
ASSINIBOIA       N/A     10   7  85 SE6         N/A  WCI   1
$$




USA.gov is the U.S. government's official web portal to all federal, state and local government web resources and services.